Location: Edisto_Beach
(32.4790°N, 80.3350°W)
Time: 19:28:01
(UTC-04:00)

Amateur Radio Satellites - All Passes

Search period start: 31 August 2016 18:58
Search period end: 01 September 2016 18:58
Location: Edisto_Beach, 32.4790°N, 80.3350°W

Satellite Date Start Highest point End Downlink Frequencies (MHz)
Time Altitude Azimuth
CUTE-I 31 Aug 18:58:30 19:03:50 87° 77° (ENE) 19:09:11 437.470
CUBESAT XI-V 31 Aug 18:58:42 19:03:14 48° 286° (WNW) 19:07:45 437.345
BRITE-PL 31 Aug 19:11:34 19:15:49 30° 265° (W) 19:20:23 437.365/2234.400
YUBILEINY 31 Aug 19:13:18 19:20:55 35° 274° (W) 19:28:32 435.215
CANX-2 31 Aug 19:26:51 19:28:41 13° 68° (ENE) 19:30:32 2200.000
CUTE 1.7 + AOD 2 31 Aug 19:32:06 19:33:53 13° 68° (ENE) 19:35:41 437.475
BEESAT 2 31 Aug 19:45:09 19:48:44 31° 247° (WSW) 19:52:17 435.950
DOVE 4 31 Aug 19:45:51 19:51:00 70° 259° (WSW) 19:56:19 437.250
HO-68 31 Aug 19:47:02 19:53:33 39° 68° (ENE) 20:00:04 435.675
CINEMA 3 31 Aug 19:54:38 19:59:16 39° 73° (ENE) 20:03:51 145.822/145.860
BEESAT 3 31 Aug 19:56:11 19:57:29 11° 252° (WSW) 19:58:48 437.485
LilacSat-2 31 Aug 19:56:24 19:58:36 15° 265° (W) 20:00:48 437.200
GOMX 1 31 Aug 20:03:26 20:07:15 21° 267° (W) 20:11:14 467.674
NOAA 18 31 Aug 20:18:12 20:21:56 18° 265° (W) 20:25:41 137.9125
PCSat 31 Aug 20:22:15 20:26:50 27° 57° (ENE) 20:31:22 145.827
STRAND 1 31 Aug 20:28:31 20:33:35 64° 102° (ESE) 20:38:39 437.568
SEEDS 31 Aug 20:29:20 20:33:15 43° 74° (ENE) 20:37:12 437.485
Cosmos 2504 31 Aug 20:29:43 20:35:16 25° 274° (W) 20:40:52 435.465 / 435.565
Cubesat XI-IV 31 Aug 20:32:18 20:33:51 11° 268° (W) 20:35:25 437.490
AIST 1 31 Aug 20:43:00 20:47:24 74° 83° (E) 20:51:44
AAUSAT CUBESAT 2 31 Aug 20:47:31 20:51:17 36° 74° (ENE) 20:55:04 437.432
FUNcube-1 31 Aug 20:49:37 20:51:52 14° 69° (ENE) 20:54:06 145.935
Cosmos 2491 31 Aug 20:52:20 20:55:35 12° 294° (WNW) 20:58:52 435.465 / 435.565
AIST 2 31 Aug 20:56:38 21:00:40 45° 59° (ENE) 21:04:40 435.215
COMPASS 1 31 Aug 20:59:48 21:03:53 71° 78° (ENE) 21:08:00 437.405
CANX-2 31 Aug 21:00:11 21:04:08 41° 261° (W) 21:08:07 2200.000
CUTE 1.7 + AOD 2 31 Aug 21:05:21 21:09:19 41° 261° (W) 21:13:17 437.475
UWE-3 31 Aug 21:07:15 21:11:30 40° 74° (ENE) 21:15:41 435.000/436.395/437.385
ZACube-1 31 Aug 21:12:00 21:15:47 28° 72° (ENE) 21:19:29 437.345
CUBEBUG 2 31 Aug 21:18:47 21:23:29 89° 78° (ENE) 21:28:04 437.445
PRISM 31 Aug 21:28:19 21:31:47 25° 97° (E) 21:35:15 437.425
CINEMA 3 31 Aug 21:32:56 21:36:25 19° 266° (W) 21:39:54 145.822/145.860
HO-68 31 Aug 21:34:50 21:41:11 34° 262° (W) 21:47:34 435.675
DELFI C3 31 Aug 21:48:13 21:51:30 26° 72° (ENE) 21:54:49 145.870
PCSat 31 Aug 22:05:22 22:10:11 33° 252° (WSW) 22:14:58 145.827
SEEDS 31 Aug 22:07:57 22:09:07 11° 267° (W) 22:10:17 437.485
Oscar 11 31 Aug 22:09:42 22:13:54 56° 260° (W) 22:18:08 145.826/435.025
STRAND 1 31 Aug 22:10:08 22:12:09 12° 296° (WNW) 22:14:12 437.568
SO-50 31 Aug 22:17:09 22:21:26 32° 112° (ESE) 22:25:44 436.795
FUNcube-1 31 Aug 22:23:33 22:27:44 41° 261° (W) 22:31:51 145.935
AAUSAT CUBESAT 2 31 Aug 22:24:59 22:26:51 13° 267° (W) 22:28:45 437.432
M-CUBED/EXP-1 PRIME 31 Aug 22:28:07 22:30:37 14° 62° (ENE) 22:33:07 437.505
AIST 2 31 Aug 22:37:03 22:38:42 12° 252° (WSW) 22:40:21 435.215
ANTELSAT 31 Aug 22:41:37 22:44:19 16° 95° (E) 22:46:58 437.575/2403.000
UWE-3 31 Aug 22:45:35 22:48:03 14° 266° (W) 22:50:28 435.000/436.395/437.385
ZACube-1 31 Aug 22:48:44 22:51:59 20° 264° (W) 22:55:13 437.345
HUMSAT D 31 Aug 22:53:21 22:57:30 84° 77° (ENE) 23:01:38 437.325/437.525
PRISM 31 Aug 23:03:50 23:06:54 20° 290° (WNW) 23:09:57 437.425
TIGRISAT 31 Aug 23:10:11 23:14:04 34° 98° (E) 23:17:56 435.000
RS-15 31 Aug 23:12:03 23:18:23 17° 98° (E) 23:24:50 29.354- 29.394
ESTCUBE 1 31 Aug 23:13:32 23:16:48 20° 69° (ENE) 23:20:05 437.505/2401.250
Cosmos 2499 31 Aug 23:19:01 23:25:40 42° 79° (E) 23:32:29 435.465 / 435.565
PHONESAT 2.4 31 Aug 23:23:13 23:25:59 34° 147° (SSE) 23:28:46 2401.200-2431.200
DELFI C3 31 Aug 23:23:48 23:26:19 16° 265° (W) 23:28:50 145.870
GONETS M04 31 Aug 23:28:18 23:37:08 69° 82° (E) 23:45:54
CUSAT 1 31 Aug 23:38:27 23:41:22 81° 278° (W) 23:45:02 437.405
CUBEBUG 1 31 Aug 23:38:45 23:42:19 24° 71° (ENE) 23:45:54 437.445
DANDE 31 Aug 23:39:24 23:40:43 13° 90° (E) 23:42:05 436.750
UNISAT 6 31 Aug 23:40:04 23:44:21 89° 283° (WNW) 23:48:36 437.425
O/OREOS (USA 219) 31 Aug 23:43:59 23:48:33 60° 69° (ENE) 23:53:06 437.305
VELOX 1 31 Aug 23:48:51 23:52:32 26° 71° (ENE) 23:56:14 145.980
AUBIESAT-1 31 Aug 23:50:10 23:54:48 85° 253° (WSW) 23:59:27 437.475
DX 1 31 Aug 23:51:01 23:53:58 18° 68° (ENE) 23:56:56 434.975-435.025
DUCHIFAT 1 31 Aug 23:51:41 23:52:29 10° 93° (E) 23:53:18 145.980
SO-50 31 Aug 23:57:56 00:01:54 25° 306° (NW) 00:05:53 436.795
QB50P2 31 Aug 23:59:20 00:02:11 18° 95° (E) 00:05:01 145.880/145.840
M-CUBED/EXP-1 PRIME 01 Sep 00:00:04 00:04:38 53° 256° (WSW) 00:09:14 437.505
POLYITAN 1 01 Sep 00:01:49 00:04:40 18° 95° (E) 00:07:31 437.675
NANOSAT C BR1 01 Sep 00:05:54 00:08:50 18° 95° (E) 00:11:45 145.865
ANTELSAT 01 Sep 00:17:18 00:21:03 31° 287° (WNW) 00:24:47 437.575/2403.000
UKube-1 01 Sep 00:21:29 00:25:17 31° 72° (ENE) 00:29:06 .
50 SAT 01 Sep 00:27:10 00:30:43 79° 77° (ENE) 00:34:19 437.505
BUGSAT 1 01 Sep 00:27:14 00:28:15 11° 93° (E) 00:29:16 437.445
AISAT 01 Sep 00:37:27 00:41:53 76° 258° (WSW) 00:46:22 437.250
TIGRISAT 01 Sep 00:47:59 00:50:25 15° 292° (WNW) 00:52:52 435.000
ESTCUBE 1 01 Sep 00:49:31 00:53:23 29° 263° (W) 00:57:17 437.505/2401.250
QB50P1 01 Sep 00:51:42 00:55:55 78° 103° (ESE) 01:00:06 145.935-145.965
PHONESAT 2.4 01 Sep 00:59:31 01:02:19 33° 341° (NNW) 01:05:06 2401.200-2431.200
POPSAT HIP 1 01 Sep 01:02:12 01:06:24 79° 285° (WNW) 01:10:34 437.405
JAS-2 01 Sep 01:04:45 01:11:51 55° 101° (E) 01:19:27 435.910
SPROUT 01 Sep 01:09:20 01:13:38 69° 259° (W) 01:17:56 437.525
TISAT 1 01 Sep 01:12:11 01:15:29 22° 71° (ENE) 01:18:47 437.305
Cosmos 2499 01 Sep 01:12:47 01:18:23 26° 273° (W) 01:24:09 435.465 / 435.565
CUBEBUG 1 01 Sep 01:14:59 01:18:28 23° 264° (W) 01:21:59 437.445
RS-15 01 Sep 01:17:30 01:28:54 86° 115° (ESE) 01:41:01 29.354- 29.394
DUCHIFAT 1 01 Sep 01:24:22 01:28:22 45° 286° (WNW) 01:32:20 145.980
VELOX 1 01 Sep 01:25:28 01:28:54 22° 264° (W) 01:32:22 145.980
DX 1 01 Sep 01:26:00 01:29:53 31° 262° (W) 01:33:48 434.975-435.025
GONETS M04 01 Sep 01:27:06 01:33:01 20° 278° (W) 01:38:55
QB50P2 01 Sep 01:34:21 01:37:57 28° 288° (WNW) 01:41:33 145.880/145.840
POLYITAN 1 01 Sep 01:36:51 01:40:26 28° 288° (WNW) 01:44:01 437.675
NANOSAT C BR1 01 Sep 01:40:59 01:44:31 27° 288° (WNW) 01:48:01 145.865
UKube-1 01 Sep 01:58:27 02:01:19 17° 265° (W) 02:04:12 .
BUGSAT 1 01 Sep 01:59:56 02:03:48 42° 286° (WNW) 02:07:37 437.445
ITUPSAT 1 01 Sep 02:29:39 02:33:48 31° 71° (ENE) 02:37:59 437.325
PHONESAT 2.4 01 Sep 02:37:03 02:39:10 17° 358° (N) 02:41:16 2401.200-2431.200
Oscar 19 01 Sep 02:39:44 02:44:56 69° 102° (ESE) 02:50:05 437.125/150
TISAT 1 01 Sep 02:47:35 02:50:59 23° 264° (W) 02:54:23 437.305
Gurwin Techsat 1B 01 Sep 02:49:25 02:54:18 36° 98° (E) 02:59:10 435.225
JAS-2 01 Sep 02:50:43 02:56:26 26° 293° (WNW) 03:02:29 435.910
SWISSCUBE 01 Sep 02:59:21 03:04:06 79° 76° (ENE) 03:08:51 437.505
BEESAT 01 Sep 03:15:55 03:20:40 76° 258° (WSW) 03:25:26 436.000
RS-15 01 Sep 03:33:38 03:43:00 27° 319° (NW) 03:52:47 29.354- 29.394
KKS-1 01 Sep 03:44:00 03:47:14 20° 69° (ENE) 03:50:28 437.445
AO-85 01 Sep 03:55:36 04:00:20 32° 112° (ESE) 04:04:54 145.980
ITAMSAT 1 01 Sep 04:04:29 04:09:35 57° 101° (E) 04:14:40 435.822/435.867
STARS 01 Sep 04:06:58 04:09:46 17° 68° (ENE) 04:12:34 437.465
ITUPSAT 1 01 Sep 04:08:04 04:11:36 21° 264° (W) 04:15:11 437.325
PHONESAT 2.4 01 Sep 04:13:32 04:16:05 25° 14° (NNE) 04:18:37 2401.200-2431.200
Oscar 19 01 Sep 04:21:46 04:23:35 12° 296° (WNW) 04:25:25 437.125/150
MOZHAYETS 4 01 Sep 04:23:36 04:28:09 77° 78° (ENE) 04:32:43
Gurwin Techsat 1B 01 Sep 04:29:56 04:33:58 23° 292° (WNW) 04:38:00 435.225
AO-7 01 Sep 04:44:10 04:52:18 57° 103° (ESE) 05:00:23 29.400- 29.500
Cosmos 2491 01 Sep 05:05:11 05:13:25 41° 77° (ENE) 05:21:35 435.465 / 435.565
KKS-1 01 Sep 05:19:38 05:23:33 30° 262° (W) 05:27:30 437.445
AO-85 01 Sep 05:36:12 05:40:46 29° 305° (NW) 05:45:10 145.980
STARS 01 Sep 05:41:45 05:45:48 35° 261° (W) 05:49:52 437.465
BRITE-PL 01 Sep 05:44:20 05:46:56 13° 90° (E) 05:49:29 437.365/2234.400
ITAMSAT 1 01 Sep 05:45:51 05:48:31 14° 295° (WNW) 05:51:12 435.822/435.867
PHONESAT 2.4 01 Sep 05:49:37 05:52:35 65° 209° (SSW) 05:55:31 2401.200-2431.200
CUBESAT XI-V 01 Sep 05:56:54 06:01:29 86° 255° (WSW) 06:06:09 437.345
RS-15 01 Sep 06:00:04 06:02:06 10° 355° (N) 06:04:09 29.354- 29.394
YUBILEINY 01 Sep 06:10:44 06:19:16 56° 90° (E) 06:27:48 435.215
ISS 01 Sep 06:32:11 06:35:10 34° 131° (SE) 06:38:11 145.825
GOMX 1 01 Sep 06:32:29 06:35:44 17° 92° (E) 06:38:51 467.674
HORYU 2 01 Sep 06:36:37 06:41:01 71° 284° (WNW) 06:45:24 437.375
AO-7 01 Sep 06:37:52 06:44:32 28° 299° (WNW) 06:51:11 29.400- 29.500
Cosmos 2491 01 Sep 07:02:13 07:09:59 36° 273° (W) 07:17:46 435.465 / 435.565
NOAA 18 01 Sep 07:02:59 07:07:40 29° 98° (E) 07:12:18 137.9125
NOAA 15 01 Sep 07:05:14 07:10:21 46° 100° (E) 07:15:26 137.62
Cosmos 2504 01 Sep 07:07:21 07:15:16 46° 90° (E) 07:22:41 435.465 / 435.565
Cubesat XI-IV 01 Sep 07:10:16 07:15:14 39° 99° (E) 07:20:11 437.490
BRITE-PL 01 Sep 07:20:12 07:25:48 64° 285° (WNW) 07:31:07 437.365/2234.400
CUTE-I 01 Sep 07:20:20 07:25:30 51° 100° (E) 07:30:39 437.470
LilacSat-2 01 Sep 07:32:21 07:36:08 82° 102° (ESE) 07:39:54 437.200
STRAND 1 01 Sep 07:39:46 07:44:45 57° 74° (ENE) 07:49:44 437.568
DOVE 4 01 Sep 07:50:15 07:54:55 47° 99° (E) 07:59:17 437.250
CINEMA 3 01 Sep 07:56:58 07:58:02 11° 92° (E) 07:59:04 145.822/145.860
BEESAT 3 01 Sep 08:03:15 08:06:14 21° 111° (ESE) 08:09:15 437.485
JUGNU 01 Sep 08:06:57 08:09:29 13° 164° (SSE) 08:12:02 437.505
GOMX 1 01 Sep 08:09:02 08:14:01 44° 287° (WNW) 08:18:42 467.674
YUBILEINY 01 Sep 08:09:16 08:16:22 27° 287° (WNW) 08:23:32 435.215
ISS 01 Sep 08:09:19 08:11:42 18° 325° (NW) 08:14:05 145.825
RS-15 01 Sep 08:14:01 08:22:21 20° 33° (NNE) 08:30:35 29.354- 29.394
PRISM 01 Sep 08:16:16 08:16:41 10° 66° (ENE) 08:17:06 437.425
SEEDS 01 Sep 08:20:37 08:21:11 10° 92° (E) 08:21:45 437.485
SO-50 01 Sep 08:32:48 08:37:22 90° 243° (WSW) 08:41:49 436.795
NOAA 18 01 Sep 08:43:32 08:48:12 30° 291° (WNW) 08:52:51 137.9125
NOAA 15 01 Sep 08:46:11 08:49:42 18° 294° (WNW) 08:53:13 137.62
COMPASS 1 01 Sep 08:48:18 08:50:55 16° 94° (E) 08:53:31 437.405
CANX-2 01 Sep 08:49:26 08:53:31 45° 99° (E) 08:57:36 2200.000
Cubesat XI-IV 01 Sep 08:51:06 08:54:59 21° 293° (WNW) 08:58:52 437.490
CUTE 1.7 + AOD 2 01 Sep 08:54:30 08:58:35 44° 99° (E) 09:02:39 437.475
Cosmos 2504 01 Sep 09:01:35 09:08:40 30° 284° (WNW) 09:15:24 435.465 / 435.565
CUTE-I 01 Sep 09:01:50 09:05:05 17° 294° (WNW) 09:08:19 437.470
UWE-3 01 Sep 09:04:42 09:04:59 10° 92° (E) 09:05:16 435.000/436.395/437.385
HO-68 01 Sep 09:06:32 09:13:38 62° 103° (ESE) 09:20:40 435.675
AIST 1 01 Sep 09:07:12 09:11:25 53° 93° (E) 09:15:42
CUBEBUG 2 01 Sep 09:15:05 09:18:28 24° 96° (E) 09:21:49 437.445
STRAND 1 01 Sep 09:22:00 09:24:11 13° 267° (W) 09:26:23 437.568
DOVE 4 01 Sep 09:29:33 09:32:03 14° 294° (WNW) 09:34:31 437.250
CINEMA 3 01 Sep 09:31:16 09:35:26 45° 286° (WNW) 09:39:27 145.822/145.860
BEESAT 2 01 Sep 09:32:05 09:35:57 59° 299° (WNW) 09:39:53 435.950
BEESAT 3 01 Sep 09:40:37 09:43:46 23° 305° (NW) 09:46:56 437.485
PRISM 01 Sep 09:47:32 09:51:29 50° 260° (W) 09:55:29 437.425
SEEDS 01 Sep 09:53:00 09:57:04 48° 285° (WNW) 10:01:08 437.485
JUGNU 01 Sep 09:53:25 09:57:52 22° 173° (S) 10:02:19 437.505
Oscar 11 01 Sep 10:01:31 10:05:29 35° 98° (E) 10:09:27 145.826/435.025
TIGRISAT 01 Sep 10:04:54 10:08:08 19° 70° (ENE) 10:11:20 435.000
AAUSAT CUBESAT 2 01 Sep 10:09:08 10:13:16 60° 284° (WNW) 10:17:22 437.432
CUSAT 1 01 Sep 10:12:48 10:19:54 57° 80° (E) 10:27:45 437.405
FUNcube-1 01 Sep 10:15:54 10:19:55 49° 100° (E) 10:23:56 145.935
DANDE 01 Sep 10:16:50 10:21:58 24° 77° (ENE) 10:27:54 436.750
COMPASS 1 01 Sep 10:22:47 10:26:29 31° 287° (WNW) 10:30:11 437.405
RS-15 01 Sep 10:25:24 10:37:46 67° 59° (ENE) 10:49:45 29.354- 29.394
CANX-2 01 Sep 10:27:17 10:28:55 12° 292° (WNW) 10:30:35 2200.000
CUTE 1.7 + AOD 2 01 Sep 10:32:16 10:33:59 12° 292° (WNW) 10:35:42 437.475
GONETS M04 01 Sep 10:32:23 10:36:16 14° 79° (ENE) 10:40:08
UNISAT 6 01 Sep 10:34:00 10:38:21 45° 74° (ENE) 10:42:39 437.425
UWE-3 01 Sep 10:37:41 10:41:39 45° 285° (WNW) 10:45:35 435.000/436.395/437.385
ZACube-1 01 Sep 10:40:17 10:44:24 72° 283° (WNW) 10:48:32 437.345
HUMSAT D 01 Sep 10:42:10 10:45:01 18° 95° (E) 10:47:53 437.325/437.525
AIST 2 01 Sep 10:50:05 10:53:34 28° 112° (ESE) 10:57:05 435.215
CUBEBUG 2 01 Sep 10:51:52 10:54:56 20° 290° (WNW) 10:57:58 437.445
HO-68 01 Sep 10:55:38 11:00:43 21° 298° (WNW) 11:05:47 435.675
PCSat 01 Sep 10:58:30 11:03:49 62° 112° (ESE) 11:09:10 145.827
DELFI C3 01 Sep 11:04:03 11:08:04 85° 98° (E) 11:12:06 145.870
ANTELSAT 01 Sep 11:10:31 11:15:05 67° 259° (WSW) 11:19:34 437.575/2403.000
Oscar 11 01 Sep 11:38:44 11:41:17 15° 291° (WNW) 11:43:50 145.826/435.025
QB50P1 01 Sep 11:39:41 11:43:25 31° 73° (ENE) 11:47:11 145.935-145.965
TIGRISAT 01 Sep 11:40:30 11:44:34 31° 262° (W) 11:48:35 435.000
SRMSAT 01 Sep 11:40:33 11:44:40 19° 170° (S) 11:48:44 437.500
JUGNU 01 Sep 11:41:38 11:46:19 24° 183° (S) 11:50:58 437.505
M-CUBED/EXP-1 PRIME 01 Sep 11:46:05 11:48:05 14° 97° (E) 11:50:01 437.505
Cosmos 2499 01 Sep 11:49:36 11:57:07 42° 90° (E) 12:04:07 435.465 / 435.565
POPSAT HIP 1 01 Sep 11:49:56 11:53:56 40° 73° (ENE) 11:57:56 437.405
FUNcube-1 01 Sep 11:55:11 11:55:41 10° 293° (WNW) 11:56:11 145.935
CUSAT 1 01 Sep 11:55:45 12:01:33 26° 271° (W) 12:07:47 437.405
DANDE 01 Sep 11:58:25 12:04:41 53° 265° (W) 12:12:19 436.750
DUCHIFAT 1 01 Sep 12:11:03 12:15:15 67° 76° (ENE) 12:19:29 145.980
UNISAT 6 01 Sep 12:13:04 12:15:11 13° 266° (W) 12:17:18 437.425
O/OREOS (USA 219) 01 Sep 12:15:28 12:17:05 12° 98° (E) 12:18:43 437.305
HUMSAT D 01 Sep 12:17:10 12:20:34 26° 288° (WNW) 12:24:00 437.325/437.525
QB50P2 01 Sep 12:21:25 12:25:40 72° 258° (WSW) 12:29:57 145.880/145.840
GONETS M04 01 Sep 12:22:58 12:31:44 90° 295° (WNW) 12:40:36
POLYITAN 1 01 Sep 12:23:54 12:28:10 71° 258° (WSW) 12:32:26 437.675
NANOSAT C BR1 01 Sep 12:27:30 12:31:44 69° 258° (WSW) 12:35:59 145.865
AIST 2 01 Sep 12:28:56 12:32:00 20° 306° (NW) 12:35:06 435.215
AISAT 01 Sep 12:32:37 12:36:28 28° 97° (E) 12:40:17 437.250
RS-15 01 Sep 12:39:16 12:49:16 31° 257° (WSW) 12:59:04 29.354- 29.394
BUGSAT 1 01 Sep 12:44:17 12:48:30 67° 76° (ENE) 12:52:43 437.445
PCSat 01 Sep 12:44:19 12:47:37 16° 308° (NW) 12:50:55 145.827
ESTCUBE 1 01 Sep 12:45:43 12:50:17 83° 102° (ESE) 12:54:49 437.505/2401.250
JAS-2 01 Sep 12:57:56 13:03:07 81° 257° (WSW) 13:08:42 435.910
SPROUT 01 Sep 13:00:17 13:03:55 27° 97° (E) 13:07:32 437.525
CUBEBUG 1 01 Sep 13:07:01 13:11:28 87° 276° (W) 13:15:50 437.445
AUBIESAT-1 01 Sep 13:08:40 13:12:19 48° 290° (WNW) 13:15:44 437.475
QB50P1 01 Sep 13:16:26 13:19:12 17° 265° (W) 13:21:59 145.935-145.965
DX 1 01 Sep 13:18:08 13:22:28 62° 101° (E) 13:26:47 434.975-435.025
VELOX 1 01 Sep 13:18:53 13:23:22 82° 282° (WNW) 13:27:47 145.980
M-CUBED/EXP-1 PRIME 01 Sep 13:19:24 13:22:42 27° 293° (WNW) 13:25:47 437.505
POPSAT HIP 1 01 Sep 13:27:54 13:29:50 13° 266° (W) 13:31:45 437.405
SRMSAT 01 Sep 13:28:34 13:33:13 24° 180° (S) 13:37:52 437.500
JUGNU 01 Sep 13:30:59 13:34:44 17° 193° (SSW) 13:38:27 437.505
50 SAT 01 Sep 13:33:13 13:36:40 41° 285° (WNW) 13:40:07 437.505
Cosmos 2499 01 Sep 13:43:15 13:50:11 31° 283° (WNW) 13:56:43 435.465 / 435.565
UKube-1 01 Sep 13:48:21 13:52:41 74° 284° (WNW) 13:56:58 .
O/OREOS (USA 219) 01 Sep 13:51:40 13:55:58 46° 292° (WNW) 14:00:20 437.305
Oscar 19 01 Sep 13:51:51 13:56:56 62° 74° (ENE) 14:02:03 437.125/150
Gurwin Techsat 1B 01 Sep 14:05:59 14:10:50 37° 71° (ENE) 14:15:41 435.225
AISAT 01 Sep 14:09:28 14:12:43 20° 291° (WNW) 14:15:57 437.250
AO-85 01 Sep 14:12:06 14:16:14 79° 62° (ENE) 14:20:06 145.980
GONETS M04 01 Sep 14:25:12 14:29:39 15° 293° (WNW) 14:34:10
TISAT 1 01 Sep 14:35:00 14:39:12 75° 102° (ESE) 14:43:21 437.305
SPROUT 01 Sep 14:36:37 14:39:38 19° 290° (WNW) 14:42:38 437.525
ITUPSAT 1 01 Sep 14:36:51 14:38:17 11° 93° (E) 14:39:45 437.325
ISS 01 Sep 14:39:33 14:42:48 56° 43° (NE) 14:46:00 145.825
SWISSCUBE 01 Sep 15:04:33 15:08:40 28° 97° (E) 15:12:46 437.505
SRMSAT 01 Sep 15:17:40 15:21:48 20° 190° (S) 15:25:55 437.500
ITAMSAT 1 01 Sep 15:17:51 15:22:54 55° 73° (ENE) 15:27:56 435.822/435.867
BEESAT 01 Sep 15:20:47 15:25:14 38° 99° (E) 15:29:39 436.000
Oscar 19 01 Sep 15:34:45 15:36:35 12° 268° (W) 15:38:25 437.125/150
AO-7 01 Sep 15:37:53 15:45:53 52° 67° (ENE) 15:53:52 29.400- 29.500
Gurwin Techsat 1B 01 Sep 15:46:50 15:50:49 21° 265° (W) 15:54:49 435.225
ITUPSAT 1 01 Sep 16:11:43 16:16:23 56° 286° (WNW) 16:21:04 437.325
MOZHAYETS 4 01 Sep 16:23:41 16:27:29 25° 97° (E) 16:31:17
YUBILEINY 01 Sep 16:28:07 16:34:19 21° 70° (ENE) 16:40:27 435.215
SWISSCUBE 01 Sep 16:42:31 16:46:16 23° 291° (WNW) 16:50:00 437.505
BEESAT 01 Sep 16:59:33 17:02:39 18° 293° (WNW) 17:05:47 436.000
ITAMSAT 1 01 Sep 17:00:04 17:02:37 14° 267° (W) 17:05:10 435.822/435.867
SRMSAT 01 Sep 17:09:55 17:10:18 10° 198° (SSW) 17:10:41 437.500
KKS-1 01 Sep 17:14:27 17:18:54 73° 103° (ESE) 17:23:18 437.445
HORYU 2 01 Sep 17:29:45 17:34:07 58° 75° (ENE) 17:38:29 437.375
AO-7 01 Sep 17:31:48 17:38:47 29° 262° (W) 17:45:49 29.400- 29.500
STARS 01 Sep 17:35:16 17:39:35 57° 101° (E) 17:43:52 437.465
GOMX 1 01 Sep 17:36:50 17:38:52 12° 64° (ENE) 17:40:56 467.674
BEESAT 2 01 Sep 17:54:59 17:57:51 19° 54° (NE) 18:00:43 435.950
CUBESAT XI-V 01 Sep 17:58:15 18:02:32 34° 98° (E) 18:06:47 437.345
Cosmos 2491 01 Sep 18:00:08 18:08:31 55° 90° (E) 18:16:58 435.465 / 435.565
MOZHAYETS 4 01 Sep 18:00:50 18:04:30 24° 290° (WNW) 18:08:09
BEESAT 3 01 Sep 18:01:06 18:04:54 43° 59° (ENE) 18:08:40 437.485
LilacSat-2 01 Sep 18:10:31 18:13:21 20° 72° (ENE) 18:16:11 437.200
NOAA 15 01 Sep 18:20:44 18:25:45 47° 72° (ENE) 18:30:47 137.62
YUBILEINY 01 Sep 18:23:05 18:31:45 69° 268° (W) 18:40:20 435.215
NOAA 18 01 Sep 18:24:37 18:29:37 36° 70° (ENE) 18:34:36 137.9125
BRITE-PL 01 Sep 18:25:35 18:30:29 89° 85° (E) 18:35:50 437.365/2234.400
Cubesat XI-IV 01 Sep 18:27:43 18:32:42 42° 72° (ENE) 18:37:41 437.490
CUTE-I 01 Sep 18:37:33 18:42:43 53° 73° (ENE) 18:47:53 437.470
